owner,sensor,date,latitude,longitude,air_temperature,qcFlag 
COMPS,ioos:station:USF.COMPS:C12:1,2017-07-01T00:05:00Z,27.4980,-83.7220,28.95,1111122 
COMPS,ioos:station:USF.COMPS:C12:1,2017-07-01T00:35:00Z,27.4980,-83.7220,28.42,1111122 
COMPS,ioos:station:USF.COMPS:C12:1,2017-07-01T01:05:00Z,27.4980,-83.7220,28.35,1111122 
COMPS,ioos:station:USF.COMPS:C12:1,2017-07-01T01:35:00Z,27.4980,-83.7220,28.31,1111122 
COMPS,ioos:station:USF.COMPS:C12:1,2017-07-01T02:05:00Z,27.4980,-83.7220,28.22,1111122 
COMPS,ioos:station:USF.COMPS:C12:1,2017-07-01T02:35:00Z,27.4980,-83.7220,28.13,1111122 
COMPS,ioos:station:USF.COMPS:C12:1,2017-07-01T03:05:00Z,27.4980,-83.7220,28.22,1111122 
COMPS,ioos:station:USF.COMPS:C12:1,2017-07-01T03:35:00Z,27.4980,-83.7220,28.24,1111122 
COMPS,ioos:station:USF.COMPS:C12:1,2017-07-01T04:05:00Z,27.4980,-83.7220,28.16,1111122 
COMPS,ioos:station:USF.COMPS:C12:1,2017-07-01T04:35:00Z,27.4980,-83.7220,28.05,1111122 
COMPS,ioos:station:USF.COMPS:C12:1,2017-07-01T05:05:00Z,27.4980,-83.7220,27.97,1111122 
COMPS,ioos:station:USF.COMPS:C12:1,2017-07-01T05:35:00Z,27.4980,-83.7220,27.85,1111122 
COMPS,ioos:station:USF.COMPS:C12:1,2017-07-01T06:05:00Z,27.4980,-83.7220,27.84,1111122 
COMPS,ioos:station:USF.COMPS:C12:1,2017-07-01T06:35:00Z,27.4980,-83.7220,27.87,1111122 
COMPS,ioos:station:USF.COMPS:C12:1,2017-07-01T07:05:00Z,27.4980,-83.7220,27.74,1111122 
COMPS,ioos:station:USF.COMPS:C12:1,2017-07-01T07:35:00Z,27.4980,-83.7220,27.61,1111122 
COMPS,ioos:station:USF.COMPS:C12:1,2017-07-01T08:05:00Z,27.4980,-83.7220,27.75,1111122 
COMPS,ioos:station:USF.COMPS:C12:1,2017-07-01T08:35:00Z,27.4980,-83.7220,27.73,1111122 
COMPS,ioos:station:USF.COMPS:C12:1,2017-07-01T09:05:00Z,27.4980,-83.7220,27.8,1111122 
COMPS,ioos:station:USF.COMPS:C12:1,2017-07-01T09:35:00Z,27.4980,-83.7220,27.87,1111122 
COMPS,ioos:station:USF.COMPS:C12:1,2017-07-01T10:05:00Z,27.4980,-83.7220,27.69,1111122 
COMPS,ioos:station:USF.COMPS:C12:1,2017-07-01T10:35:00Z,27.4980,-83.7220,27.81,1111122 
COMPS,ioos:station:USF.COMPS:C12:1,2017-07-01T11:05:00Z,27.4980,-83.7220,27.94,1111122 
COMPS,ioos:station:USF.COMPS:C12:1,2017-07-01T11:35:00Z,27.4980,-83.7220,27.89,1111122 
COMPS,ioos:station:USF.COMPS:C12:1,2017-07-01T12:05:00Z,27.4980,-83.7220,27.9,1111122 
COMPS,ioos:station:USF.COMPS:C12:1,2017-07-01T12:35:00Z,27.4980,-83.7220,27.84,1111122 
COMPS,ioos:station:USF.COMPS:C12:1,2017-07-01T13:05:00Z,27.4980,-83.7220,28.21,1111122 
COMPS,ioos:station:USF.COMPS:C12:1,2017-07-01T13:35:00Z,27.4980,-83.7220,27.92,1111122 
COMPS,ioos:station:USF.COMPS:C12:1,2017-07-01T14:05:00Z,27.4980,-83.7220,28.47,1111122 
COMPS,ioos:station:USF.COMPS:C12:1,2017-07-01T14:35:00Z,27.4980,-83.7220,28.33,1111122 
COMPS,ioos:station:USF.COMPS:C12:1,2017-07-01T15:05:00Z,27.4980,-83.7220,28.16,1111122 
COMPS,ioos:station:USF.COMPS:C12:1,2017-07-01T15:35:00Z,27.4980,-83.7220,28.18,1111122 
COMPS,ioos:station:USF.COMPS:C12:1,2017-07-01T16:05:00Z,27.4980,-83.7220,27.51,1111122 
COMPS,ioos:station:USF.COMPS:C12:1,2017-07-01T16:35:00Z,27.4980,-83.7220,27.55,1111122 
COMPS,ioos:station:USF.COMPS:C12:1,2017-07-01T17:05:00Z,27.4980,-83.7220,27.67,1111122 
COMPS,ioos:station:USF.COMPS:C12:1,2017-07-01T17:35:00Z,27.4980,-83.7220,28.1,1111122 
COMPS,ioos:station:USF.COMPS:C12:1,2017-07-01T18:05:00Z,27.4980,-83.7220,26.59,1111122 
COMPS,ioos:station:USF.COMPS:C12:1,2017-07-01T18:35:00Z,27.4980,-83.7220,26.3,1111122 
COMPS,ioos:station:USF.COMPS:C12:1,2017-07-01T19:05:00Z,27.4980,-83.7220,26.78,1111122 
COMPS,ioos:station:USF.COMPS:C12:1,2017-07-01T19:35:00Z,27.4980,-83.7220,27.23,1111122 
COMPS,ioos:station:USF.COMPS:C12:1,2017-07-01T20:05:00Z,27.4980,-83.7220,27.44,1111122 
COMPS,ioos:station:USF.COMPS:C12:1,2017-07-01T20:35:00Z,27.4980,-83.7220,27.57,1111122 
COMPS,ioos:station:USF.COMPS:C12:1,2017-07-01T21:05:00Z,27.4980,-83.7220,28.4,1111122 
COMPS,ioos:station:USF.COMPS:C12:1,2017-07-01T21:35:00Z,27.4980,-83.7220,27.96,1111122 
COMPS,ioos:station:USF.COMPS:C12:1,2017-07-01T22:05:00Z,27.4980,-83.7220,27.97,1111122 
COMPS,ioos:station:USF.COMPS:C12:1,2017-07-01T22:35:00Z,27.4980,-83.7220,27.83,1111122 
COMPS,ioos:station:USF.COMPS:C12:1,2017-07-01T23:05:00Z,27.4980,-83.7220,27.87,1111122 
COMPS,ioos:station:USF.COMPS:C12:1,2017-07-01T23:35:00Z,27.4980,-83.7220,27.89,1111122 
COMPS,ioos:station:USF.COMPS:C12:1,2017-07-02T00:05:00Z,27.4980,-83.7220,27.97,1111122 
COMPS,ioos:station:USF.COMPS:C12:1,2017-07-02T00:35:00Z,27.4980,-83.7220,27.79,1111122 
COMPS,ioos:station:USF.COMPS:C12:1,2017-07-02T01:05:00Z,27.4980,-83.7220,27.81,1111122 
COMPS,ioos:station:USF.COMPS:C12:1,2017-07-02T01:35:00Z,27.4980,-83.7220,27.89,1111122 
COMPS,ioos:station:USF.COMPS:C12:1,2017-07-02T02:05:00Z,27.4980,-83.7220,27.93,1111122 
COMPS,ioos:station:USF.COMPS:C12:1,2017-07-02T02:35:00Z,27.4980,-83.7220,27.95,1111122 
COMPS,ioos:station:USF.COMPS:C12:1,2017-07-02T03:05:00Z,27.4980,-83.7220,28.09,1111122 
COMPS,ioos:station:USF.COMPS:C12:1,2017-07-02T03:35:00Z,27.4980,-83.7220,28.27,1111122 
COMPS,ioos:station:USF.COMPS:C12:1,2017-07-02T04:05:00Z,27.4980,-83.7220,28.03,1111122 
COMPS,ioos:station:USF.COMPS:C12:1,2017-07-02T04:35:00Z,27.4980,-83.7220,27.97,1111122 
COMPS,ioos:station:USF.COMPS:C12:1,2017-07-02T05:05:00Z,27.4980,-83.7220,27.91,1111122 
COMPS,ioos:station:USF.COMPS:C12:1,2017-07-02T05:35:00Z,27.4980,-83.7220,27.87,1111122 
COMPS,ioos:station:USF.COMPS:C12:1,2017-07-02T06:05:00Z,27.4980,-83.7220,27.77,1111122 
COMPS,ioos:station:USF.COMPS:C12:1,2017-07-02T06:35:00Z,27.4980,-83.7220,27.8,1111122 
COMPS,ioos:station:USF.COMPS:C12:1,2017-07-02T07:05:00Z,27.4980,-83.7220,27.74,1111122 
COMPS,ioos:station:USF.COMPS:C12:1,2017-07-02T07:35:00Z,27.4980,-83.7220,27.72,1111122 
COMPS,ioos:station:USF.COMPS:C12:1,2017-07-02T08:05:00Z,27.4980,-83.7220,27.74,1111122 
COMPS,ioos:station:USF.COMPS:C12:1,2017-07-02T08:35:00Z,27.4980,-83.7220,27.45,1111122 
COMPS,ioos:station:USF.COMPS:C12:1,2017-07-02T09:05:00Z,27.4980,-83.7220,26.92,1111122 
COMPS,ioos:station:USF.COMPS:C12:1,2017-07-02T09:35:00Z,27.4980,-83.7220,27.0,1111122 
COMPS,ioos:station:USF.COMPS:C12:1,2017-07-02T10:05:00Z,27.4980,-83.7220,27.32,1111122 
COMPS,ioos:station:USF.COMPS:C12:1,2017-07-02T10:35:00Z,27.4980,-83.7220,27.25,1111122 
COMPS,ioos:station:USF.COMPS:C12:1,2017-07-02T11:05:00Z,27.4980,-83.7220,27.32,1111122 
COMPS,ioos:station:USF.COMPS:C12:1,2017-07-02T11:35:00Z,27.4980,-83.7220,27.74,1111122 
COMPS,ioos:station:USF.COMPS:C12:1,2017-07-02T12:05:00Z,27.4980,-83.7220,28.07,1111122 
COMPS,ioos:station:USF.COMPS:C12:1,2017-07-02T12:35:00Z,27.4980,-83.7220,28.22,1111122 
COMPS,ioos:station:USF.COMPS:C12:1,2017-07-02T13:05:00Z,27.4980,-83.7220,28.2,1111122 
COMPS,ioos:station:USF.COMPS:C12:1,2017-07-02T13:35:00Z,27.4980,-83.7220,27.84,1111122 
COMPS,ioos:station:USF.COMPS:C12:1,2017-07-02T14:05:00Z,27.4980,-83.7220,27.9,1111122 
COMPS,ioos:station:USF.COMPS:C12:1,2017-07-02T14:35:00Z,27.4980,-83.7220,27.87,1111122 
COMPS,ioos:station:USF.COMPS:C12:1,2017-07-02T15:05:00Z,27.4980,-83.7220,27.95,1111122 
COMPS,ioos:station:USF.COMPS:C12:1,2017-07-02T15:35:00Z,27.4980,-83.7220,28.03,1111122 
COMPS,ioos:station:USF.COMPS:C12:1,2017-07-02T16:05:00Z,27.4980,-83.7220,27.91,1111122 
COMPS,ioos:station:USF.COMPS:C12:1,2017-07-02T16:35:00Z,27.4980,-83.7220,28.03,1111122 
COMPS,ioos:station:USF.COMPS:C12:1,2017-07-02T17:05:00Z,27.4980,-83.7220,28.1,1111122 
COMPS,ioos:station:USF.COMPS:C12:1,2017-07-02T17:35:00Z,27.4980,-83.7220,28.23,1111122 
COMPS,ioos:station:USF.COMPS:C12:1,2017-07-02T18:05:00Z,27.4980,-83.7220,28.57,1111122 
COMPS,ioos:station:USF.COMPS:C12:1,2017-07-02T18:35:00Z,27.4980,-83.7220,28.64,1111122 
COMPS,ioos:station:USF.COMPS:C12:1,2017-07-02T19:05:00Z,27.4980,-83.7220,28.94,1111122 
COMPS,ioos:station:USF.COMPS:C12:1,2017-07-02T19:35:00Z,27.4980,-83.7220,28.76,1111122 
COMPS,ioos:station:USF.COMPS:C12:1,2017-07-02T20:05:00Z,27.4980,-83.7220,29.49,1111122 
COMPS,ioos:station:USF.COMPS:C12:1,2017-07-02T20:35:00Z,27.4980,-83.7220,29.36,1111122 
COMPS,ioos:station:USF.COMPS:C12:1,2017-07-02T21:05:00Z,27.4980,-83.7220,29.56,1111122 
COMPS,ioos:station:USF.COMPS:C12:1,2017-07-02T21:35:00Z,27.4980,-83.7220,29.82,1111122 
COMPS,ioos:station:USF.COMPS:C12:1,2017-07-02T22:05:00Z,27.4980,-83.7220,29.85,1111122 
COMPS,ioos:station:USF.COMPS:C12:1,2017-07-02T22:35:00Z,27.4980,-83.7220,30.05,1111122 
COMPS,ioos:station:USF.COMPS:C12:1,2017-07-02T23:05:00Z,27.4980,-83.7220,29.44,1111122 
COMPS,ioos:station:USF.COMPS:C12:1,2017-07-02T23:35:00Z,27.4980,-83.7220,29.13,1111122 
COMPS,ioos:station:USF.COMPS:C12:1,2017-07-03T00:05:00Z,27.4980,-83.7220,28.7,1111122 
COMPS,ioos:station:USF.COMPS:C12:1,2017-07-03T00:35:00Z,27.4980,-83.7220,28.78,1111122 
COMPS,ioos:station:USF.COMPS:C12:1,2017-07-03T01:05:00Z,27.4980,-83.7220,28.47,1111122 
COMPS,ioos:station:USF.COMPS:C12:1,2017-07-03T01:35:00Z,27.4980,-83.7220,28.57,1111122 
COMPS,ioos:station:USF.COMPS:C12:1,2017-07-03T02:05:00Z,27.4980,-83.7220,28.63,1111122 
COMPS,ioos:station:USF.COMPS:C12:1,2017-07-03T02:35:00Z,27.4980,-83.7220,28.61,1111122 
COMPS,ioos:station:USF.COMPS:C12:1,2017-07-03T03:05:00Z,27.4980,-83.7220,28.63,1111122 
COMPS,ioos:station:USF.COMPS:C12:1,2017-07-03T03:35:00Z,27.4980,-83.7220,28.44,1111122 
COMPS,ioos:station:USF.COMPS:C12:1,2017-07-03T04:05:00Z,27.4980,-83.7220,28.53,1111122 
COMPS,ioos:station:USF.COMPS:C12:1,2017-07-03T04:35:00Z,27.4980,-83.7220,28.46,1111122 
COMPS,ioos:station:USF.COMPS:C12:1,2017-07-03T05:05:00Z,27.4980,-83.7220,28.33,1111122 
COMPS,ioos:station:USF.COMPS:C12:1,2017-07-03T05:35:00Z,27.4980,-83.7220,28.35,1111122 
COMPS,ioos:station:USF.COMPS:C12:1,2017-07-03T06:05:00Z,27.4980,-83.7220,28.16,1111122 
COMPS,ioos:station:USF.COMPS:C12:1,2017-07-03T06:35:00Z,27.4980,-83.7220,28.12,1111122 
COMPS,ioos:station:USF.COMPS:C12:1,2017-07-03T07:05:00Z,27.4980,-83.7220,28.04,1111122 
COMPS,ioos:station:USF.COMPS:C12:1,2017-07-03T07:35:00Z,27.4980,-83.7220,27.86,1111122 
COMPS,ioos:station:USF.COMPS:C12:1,2017-07-03T08:05:00Z,27.4980,-83.7220,27.66,1111122 
COMPS,ioos:station:USF.COMPS:C12:1,2017-07-03T08:35:00Z,27.4980,-83.7220,27.82,1111122 
COMPS,ioos:station:USF.COMPS:C12:1,2017-07-03T09:05:00Z,27.4980,-83.7220,27.71,1111122 
COMPS,ioos:station:USF.COMPS:C12:1,2017-07-03T09:35:00Z,27.4980,-83.7220,27.76,1111122 
COMPS,ioos:station:USF.COMPS:C12:1,2017-07-03T10:05:00Z,27.4980,-83.7220,27.76,1111122 
COMPS,ioos:station:USF.COMPS:C12:1,2017-07-03T10:35:00Z,27.4980,-83.7220,27.72,1111122 
COMPS,ioos:station:USF.COMPS:C12:1,2017-07-03T11:05:00Z,27.4980,-83.7220,27.84,1111122 
COMPS,ioos:station:USF.COMPS:C12:1,2017-07-03T11:35:00Z,27.4980,-83.7220,27.79,1111122 
COMPS,ioos:station:USF.COMPS:C12:1,2017-07-03T12:05:00Z,27.4980,-83.7220,28.19,1111122 
COMPS,ioos:station:USF.COMPS:C12:1,2017-07-03T12:35:00Z,27.4980,-83.7220,28.35,1111122 
COMPS,ioos:station:USF.COMPS:C12:1,2017-07-03T13:05:00Z,27.4980,-83.7220,28.88,1111122 
COMPS,ioos:station:USF.COMPS:C12:1,2017-07-03T13:35:00Z,27.4980,-83.7220,28.15,1111122 
COMPS,ioos:station:USF.COMPS:C12:1,2017-07-03T14:05:00Z,27.4980,-83.7220,28.12,1111122 
COMPS,ioos:station:USF.COMPS:C12:1,2017-07-03T14:35:00Z,27.4980,-83.7220,27.61,1111122 
COMPS,ioos:station:USF.COMPS:C12:1,2017-07-03T15:05:00Z,27.4980,-83.7220,27.59,1111122 
COMPS,ioos:station:USF.COMPS:C12:1,2017-07-03T15:35:00Z,27.4980,-83.7220,27.45,1111122 
COMPS,ioos:station:USF.COMPS:C12:1,2017-07-03T16:05:00Z,27.4980,-83.7220,27.51,1111122 
COMPS,ioos:station:USF.COMPS:C12:1,2017-07-03T16:35:00Z,27.4980,-83.7220,27.45,1111122 
COMPS,ioos:station:USF.COMPS:C12:1,2017-07-03T17:05:00Z,27.4980,-83.7220,27.65,1111122 
COMPS,ioos:station:USF.COMPS:C12:1,2017-07-03T17:35:00Z,27.4980,-83.7220,27.38,1111122 
COMPS,ioos:station:USF.COMPS:C12:1,2017-07-03T18:05:00Z,27.4980,-83.7220,27.53,1111122 
COMPS,ioos:station:USF.COMPS:C12:1,2017-07-03T18:35:00Z,27.4980,-83.7220,27.64,1111122 
COMPS,ioos:station:USF.COMPS:C12:1,2017-07-03T19:05:00Z,27.4980,-83.7220,27.66,1111122 
COMPS,ioos:station:USF.COMPS:C12:1,2017-07-03T19:35:00Z,27.4980,-83.7220,27.76,1111122 
COMPS,ioos:station:USF.COMPS:C12:1,2017-07-03T20:05:00Z,27.4980,-83.7220,27.91,1111122 
COMPS,ioos:station:USF.COMPS:C12:1,2017-07-03T20:35:00Z,27.4980,-83.7220,27.88,1111122 
COMPS,ioos:station:USF.COMPS:C12:1,2017-07-03T21:05:00Z,27.4980,-83.7220,27.87,1111122 
COMPS,ioos:station:USF.COMPS:C12:1,2017-07-03T21:35:00Z,27.4980,-83.7220,28.0,1111122 
COMPS,ioos:station:USF.COMPS:C12:1,2017-07-03T22:05:00Z,27.4980,-83.7220,28.63,1111122 
COMPS,ioos:station:USF.COMPS:C12:1,2017-07-03T22:35:00Z,27.4980,-83.7220,29.0,1111122 
COMPS,ioos:station:USF.COMPS:C12:1,2017-07-03T23:05:00Z,27.4980,-83.7220,28.4,1111122 
COMPS,ioos:station:USF.COMPS:C12:1,2017-07-03T23:35:00Z,27.4980,-83.7220,28.37,1111122 
COMPS,ioos:station:USF.COMPS:C12:1,2017-07-04T00:05:00Z,27.4980,-83.7220,28.3,1111122 
COMPS,ioos:station:USF.COMPS:C12:1,2017-07-04T00:35:00Z,27.4980,-83.7220,28.28,1111122 
COMPS,ioos:station:USF.COMPS:C12:1,2017-07-04T01:05:00Z,27.4980,-83.7220,28.34,1111122 
COMPS,ioos:station:USF.COMPS:C12:1,2017-07-04T01:35:00Z,27.4980,-83.7220,28.41,1111122 
COMPS,ioos:station:USF.COMPS:C12:1,2017-07-04T02:05:00Z,27.4980,-83.7220,28.37,1111122 
COMPS,ioos:station:USF.COMPS:C12:1,2017-07-04T02:35:00Z,27.4980,-83.7220,28.39,1111122 
COMPS,ioos:station:USF.COMPS:C12:1,2017-07-04T03:05:00Z,27.4980,-83.7220,28.25,1111122 
COMPS,ioos:station:USF.COMPS:C12:1,2017-07-04T03:35:00Z,27.4980,-83.7220,28.39,1111122 
COMPS,ioos:station:USF.COMPS:C12:1,2017-07-04T04:05:00Z,27.4980,-83.7220,28.32,1111122 
COMPS,ioos:station:USF.COMPS:C12:1,2017-07-04T04:35:00Z,27.4980,-83.7220,28.25,1111122 
COMPS,ioos:station:USF.COMPS:C12:1,2017-07-04T05:05:00Z,27.4980,-83.7220,28.4,1111122 
COMPS,ioos:station:USF.COMPS:C12:1,2017-07-04T05:35:00Z,27.4980,-83.7220,28.37,1111122 
COMPS,ioos:station:USF.COMPS:C12:1,2017-07-04T06:05:00Z,27.4980,-83.7220,28.27,1111122 
COMPS,ioos:station:USF.COMPS:C12:1,2017-07-04T06:35:00Z,27.4980,-83.7220,28.09,1111122 
COMPS,ioos:station:USF.COMPS:C12:1,2017-07-04T07:05:00Z,27.4980,-83.7220,28.05,1111122 
COMPS,ioos:station:USF.COMPS:C12:1,2017-07-04T07:35:00Z,27.4980,-83.7220,27.78,1111122 
COMPS,ioos:station:USF.COMPS:C12:1,2017-07-04T08:05:00Z,27.4980,-83.7220,27.47,1111122 
COMPS,ioos:station:USF.COMPS:C12:1,2017-07-04T08:35:00Z,27.4980,-83.7220,27.69,1111122 
COMPS,ioos:station:USF.COMPS:C12:1,2017-07-04T09:05:00Z,27.4980,-83.7220,27.83,1111122 
COMPS,ioos:station:USF.COMPS:C12:1,2017-07-04T09:35:00Z,27.4980,-83.7220,27.96,1111122 
COMPS,ioos:station:USF.COMPS:C12:1,2017-07-04T10:05:00Z,27.4980,-83.7220,28.27,1111122 
COMPS,ioos:station:USF.COMPS:C12:1,2017-07-04T10:35:00Z,27.4980,-83.7220,28.18,1111122 
COMPS,ioos:station:USF.COMPS:C12:1,2017-07-04T11:05:00Z,27.4980,-83.7220,28.1,1111122 
COMPS,ioos:station:USF.COMPS:C12:1,2017-07-04T11:35:00Z,27.4980,-83.7220,28.52,1111122 
COMPS,ioos:station:USF.COMPS:C12:1,2017-07-04T12:05:00Z,27.4980,-83.7220,28.58,1111122 
COMPS,ioos:station:USF.COMPS:C12:1,2017-07-04T12:35:00Z,27.4980,-83.7220,28.84,1111122 
COMPS,ioos:station:USF.COMPS:C12:1,2017-07-04T13:05:00Z,27.4980,-83.7220,28.6,1111122 
COMPS,ioos:station:USF.COMPS:C12:1,2017-07-04T13:35:00Z,27.4980,-83.7220,28.26,1111122 
COMPS,ioos:station:USF.COMPS:C12:1,2017-07-04T14:05:00Z,27.4980,-83.7220,28.2,1111122 
COMPS,ioos:station:USF.COMPS:C12:1,2017-07-04T14:35:00Z,27.4980,-83.7220,28.15,1111122 
COMPS,ioos:station:USF.COMPS:C12:1,2017-07-04T15:05:00Z,27.4980,-83.7220,28.17,1111122 
COMPS,ioos:station:USF.COMPS:C12:1,2017-07-04T15:35:00Z,27.4980,-83.7220,28.19,1111122 
COMPS,ioos:station:USF.COMPS:C12:1,2017-07-04T16:05:00Z,27.4980,-83.7220,28.29,1111122 
COMPS,ioos:station:USF.COMPS:C12:1,2017-07-04T16:35:00Z,27.4980,-83.7220,28.3,1111122 
COMPS,ioos:station:USF.COMPS:C12:1,2017-07-04T17:05:00Z,27.4980,-83.7220,28.23,1111122 
COMPS,ioos:station:USF.COMPS:C12:1,2017-07-04T17:35:00Z,27.4980,-83.7220,28.12,1111122 
COMPS,ioos:station:USF.COMPS:C12:1,2017-07-04T18:05:00Z,27.4980,-83.7220,28.17,1111122 
COMPS,ioos:station:USF.COMPS:C12:1,2017-07-04T18:35:00Z,27.4980,-83.7220,28.27,1111122 
COMPS,ioos:station:USF.COMPS:C12:1,2017-07-04T19:05:00Z,27.4980,-83.7220,28.3,1111122 
COMPS,ioos:station:USF.COMPS:C12:1,2017-07-04T19:35:00Z,27.4980,-83.7220,28.38,1111122 
COMPS,ioos:station:USF.COMPS:C12:1,2017-07-04T20:05:00Z,27.4980,-83.7220,28.46,1111122 
COMPS,ioos:station:USF.COMPS:C12:1,2017-07-04T20:35:00Z,27.4980,-83.7220,28.49,1111122 
COMPS,ioos:station:USF.COMPS:C12:1,2017-07-04T21:05:00Z,27.4980,-83.7220,28.63,1111122 
COMPS,ioos:station:USF.COMPS:C12:1,2017-07-04T21:35:00Z,27.4980,-83.7220,28.84,1111122 
COMPS,ioos:station:USF.COMPS:C12:1,2017-07-04T22:05:00Z,27.4980,-83.7220,28.97,1111122 
COMPS,ioos:station:USF.COMPS:C12:1,2017-07-04T22:35:00Z,27.4980,-83.7220,28.86,1111122 
COMPS,ioos:station:USF.COMPS:C12:1,2017-07-04T23:05:00Z,27.4980,-83.7220,29.0,1111122 
COMPS,ioos:station:USF.COMPS:C12:1,2017-07-04T23:35:00Z,27.4980,-83.7220,28.85,1111122 
COMPS,ioos:station:USF.COMPS:C12:1,2017-07-05T00:05:00Z,27.4980,-83.7220,28.78,1111122 
COMPS,ioos:station:USF.COMPS:C12:1,2017-07-05T00:35:00Z,27.4980,-83.7220,28.49,1111122 
COMPS,ioos:station:USF.COMPS:C12:1,2017-07-05T01:05:00Z,27.4980,-83.7220,28.47,1111122 
COMPS,ioos:station:USF.COMPS:C12:1,2017-07-05T01:35:00Z,27.4980,-83.7220,28.47,1111122 
COMPS,ioos:station:USF.COMPS:C12:1,2017-07-05T02:05:00Z,27.4980,-83.7220,28.54,1111122 
COMPS,ioos:station:USF.COMPS:C12:1,2017-07-05T02:35:00Z,27.4980,-83.7220,28.51,1111122 
COMPS,ioos:station:USF.COMPS:C12:1,2017-07-05T03:05:00Z,27.4980,-83.7220,28.56,1111122 
COMPS,ioos:station:USF.COMPS:C12:1,2017-07-05T03:35:00Z,27.4980,-83.7220,28.62,1111122 
COMPS,ioos:station:USF.COMPS:C12:1,2017-07-05T04:05:00Z,27.4980,-83.7220,28.54,1111122 
COMPS,ioos:station:USF.COMPS:C12:1,2017-07-05T04:35:00Z,27.4980,-83.7220,28.4,1111122 
COMPS,ioos:station:USF.COMPS:C12:1,2017-07-05T05:05:00Z,27.4980,-83.7220,28.37,1111122 
COMPS,ioos:station:USF.COMPS:C12:1,2017-07-05T05:35:00Z,27.4980,-83.7220,28.29,1111122 
COMPS,ioos:station:USF.COMPS:C12:1,2017-07-05T06:05:00Z,27.4980,-83.7220,28.03,1111122 
COMPS,ioos:station:USF.COMPS:C12:1,2017-07-05T06:35:00Z,27.4980,-83.7220,28.35,1111122 
COMPS,ioos:station:USF.COMPS:C12:1,2017-07-05T07:05:00Z,27.4980,-83.7220,28.54,1111122 
COMPS,ioos:station:USF.COMPS:C12:1,2017-07-05T07:35:00Z,27.4980,-83.7220,28.32,1111122 
COMPS,ioos:station:USF.COMPS:C12:1,2017-07-05T08:05:00Z,27.4980,-83.7220,28.54,1111122 
COMPS,ioos:station:USF.COMPS:C12:1,2017-07-05T08:35:00Z,27.4980,-83.7220,28.35,1111122 
COMPS,ioos:station:USF.COMPS:C12:1,2017-07-05T09:05:00Z,27.4980,-83.7220,28.52,1111122 
COMPS,ioos:station:USF.COMPS:C12:1,2017-07-05T09:35:00Z,27.4980,-83.7220,28.57,1111122 
COMPS,ioos:station:USF.COMPS:C12:1,2017-07-05T10:05:00Z,27.4980,-83.7220,28.61,1111122 
COMPS,ioos:station:USF.COMPS:C12:1,2017-07-05T10:35:00Z,27.4980,-83.7220,28.56,1111122 
COMPS,ioos:station:USF.COMPS:C12:1,2017-07-05T11:05:00Z,27.4980,-83.7220,28.53,1111122 
COMPS,ioos:station:USF.COMPS:C12:1,2017-07-05T11:35:00Z,27.4980,-83.7220,29.01,1111122 
COMPS,ioos:station:USF.COMPS:C12:1,2017-07-05T12:05:00Z,27.4980,-83.7220,29.33,1111122 
COMPS,ioos:station:USF.COMPS:C12:1,2017-07-05T12:35:00Z,27.4980,-83.7220,29.07,1111122 
COMPS,ioos:station:USF.COMPS:C12:1,2017-07-05T13:05:00Z,27.4980,-83.7220,28.82,1111122 
COMPS,ioos:station:USF.COMPS:C12:1,2017-07-05T13:35:00Z,27.4980,-83.7220,28.52,1111122 
COMPS,ioos:station:USF.COMPS:C12:1,2017-07-05T14:05:00Z,27.4980,-83.7220,28.49,1111122 
COMPS,ioos:station:USF.COMPS:C12:1,2017-07-05T14:35:00Z,27.4980,-83.7220,28.39,1111122 
COMPS,ioos:station:USF.COMPS:C12:1,2017-07-05T15:05:00Z,27.4980,-83.7220,28.44,1111122 
COMPS,ioos:station:USF.COMPS:C12:1,2017-07-05T15:35:00Z,27.4980,-83.7220,28.46,1111122 
COMPS,ioos:station:USF.COMPS:C12:1,2017-07-05T16:05:00Z,27.4980,-83.7220,28.53,1111122 
COMPS,ioos:station:USF.COMPS:C12:1,2017-07-05T16:35:00Z,27.4980,-83.7220,28.51,1111122 
COMPS,ioos:station:USF.COMPS:C12:1,2017-07-05T17:05:00Z,27.4980,-83.7220,28.77,1111122 
COMPS,ioos:station:USF.COMPS:C12:1,2017-07-05T17:35:00Z,27.4980,-83.7220,28.71,1111122 
COMPS,ioos:station:USF.COMPS:C12:1,2017-07-05T18:05:00Z,27.4980,-83.7220,28.64,1111122 
COMPS,ioos:station:USF.COMPS:C12:1,2017-07-05T18:35:00Z,27.4980,-83.7220,28.63,1111122 
COMPS,ioos:station:USF.COMPS:C12:1,2017-07-05T19:05:00Z,27.4980,-83.7220,28.65,1111122 
COMPS,ioos:station:USF.COMPS:C12:1,2017-07-05T19:35:00Z,27.4980,-83.7220,28.66,1111122 
COMPS,ioos:station:USF.COMPS:C12:1,2017-07-05T20:05:00Z,27.4980,-83.7220,28.71,1111122 
COMPS,ioos:station:USF.COMPS:C12:1,2017-07-05T20:35:00Z,27.4980,-83.7220,28.83,1111122 
COMPS,ioos:station:USF.COMPS:C12:1,2017-07-05T21:05:00Z,27.4980,-83.7220,28.92,1111122 
COMPS,ioos:station:USF.COMPS:C12:1,2017-07-05T21:35:00Z,27.4980,-83.7220,29.53,1111122 
COMPS,ioos:station:USF.COMPS:C12:1,2017-07-05T22:05:00Z,27.4980,-83.7220,29.6,1111122 
COMPS,ioos:station:USF.COMPS:C12:1,2017-07-05T22:35:00Z,27.4980,-83.7220,29.51,1111122 
COMPS,ioos:station:USF.COMPS:C12:1,2017-07-05T23:05:00Z,27.4980,-83.7220,29.71,1111122 
COMPS,ioos:station:USF.COMPS:C12:1,2017-07-05T23:35:00Z,27.4980,-83.7220,29.31,1111122 
COMPS,ioos:station:USF.COMPS:C12:1,2017-07-06T00:05:00Z,27.4980,-83.7220,29.46,1111122 
COMPS,ioos:station:USF.COMPS:C12:1,2017-07-06T00:35:00Z,27.4980,-83.7220,29.08,1111122 
COMPS,ioos:station:USF.COMPS:C12:1,2017-07-06T01:05:00Z,27.4980,-83.7220,29.0,1111122 
COMPS,ioos:station:USF.COMPS:C12:1,2017-07-06T01:35:00Z,27.4980,-83.7220,28.98,1111122 
COMPS,ioos:station:USF.COMPS:C12:1,2017-07-06T02:05:00Z,27.4980,-83.7220,29.0,1111122 
COMPS,ioos:station:USF.COMPS:C12:1,2017-07-06T02:35:00Z,27.4980,-83.7220,29.09,1111122 
COMPS,ioos:station:USF.COMPS:C12:1,2017-07-06T03:05:00Z,27.4980,-83.7220,29.02,1111122 
COMPS,ioos:station:USF.COMPS:C12:1,2017-07-06T03:35:00Z,27.4980,-83.7220,29.12,1111122 
COMPS,ioos:station:USF.COMPS:C12:1,2017-07-06T04:05:00Z,27.4980,-83.7220,29.04,1111122 
COMPS,ioos:station:USF.COMPS:C12:1,2017-07-06T04:35:00Z,27.4980,-83.7220,28.21,1111122 
COMPS,ioos:station:USF.COMPS:C12:1,2017-07-06T05:05:00Z,27.4980,-83.7220,28.04,1111122 
COMPS,ioos:station:USF.COMPS:C12:1,2017-07-06T05:35:00Z,27.4980,-83.7220,28.67,1111122 
COMPS,ioos:station:USF.COMPS:C12:1,2017-07-06T06:05:00Z,27.4980,-83.7220,28.87,1111122 
COMPS,ioos:station:USF.COMPS:C12:1,2017-07-06T06:35:00Z,27.4980,-83.7220,29.17,1111122 
COMPS,ioos:station:USF.COMPS:C12:1,2017-07-06T07:05:00Z,27.4980,-83.7220,28.99,1111122 
COMPS,ioos:station:USF.COMPS:C12:1,2017-07-06T07:35:00Z,27.4980,-83.7220,28.56,1111122 
COMPS,ioos:station:USF.COMPS:C12:1,2017-07-06T08:05:00Z,27.4980,-83.7220,28.18,1111122 
COMPS,ioos:station:USF.COMPS:C12:1,2017-07-06T08:35:00Z,27.4980,-83.7220,28.28,1111122 
COMPS,ioos:station:USF.COMPS:C12:1,2017-07-06T09:05:00Z,27.4980,-83.7220,28.56,1111122 
COMPS,ioos:station:USF.COMPS:C12:1,2017-07-06T09:35:00Z,27.4980,-83.7220,28.48,1111122 
COMPS,ioos:station:USF.COMPS:C12:1,2017-07-06T10:05:00Z,27.4980,-83.7220,28.34,1111122 
COMPS,ioos:station:USF.COMPS:C12:1,2017-07-06T10:35:00Z,27.4980,-83.7220,28.14,1111122 
COMPS,ioos:station:USF.COMPS:C12:1,2017-07-06T11:05:00Z,27.4980,-83.7220,28.19,1111122 
COMPS,ioos:station:USF.COMPS:C12:1,2017-07-06T11:35:00Z,27.4980,-83.7220,28.38,1111122 
COMPS,ioos:station:USF.COMPS:C12:1,2017-07-06T12:05:00Z,27.4980,-83.7220,28.69,1111122 
COMPS,ioos:station:USF.COMPS:C12:1,2017-07-06T12:35:00Z,27.4980,-83.7220,28.72,1111122 
COMPS,ioos:station:USF.COMPS:C12:1,2017-07-06T13:05:00Z,27.4980,-83.7220,28.48,1111122 
COMPS,ioos:station:USF.COMPS:C12:1,2017-07-06T13:35:00Z,27.4980,-83.7220,28.48,1111122 
COMPS,ioos:station:USF.COMPS:C12:1,2017-07-06T14:05:00Z,27.4980,-83.7220,28.54,1111122 
COMPS,ioos:station:USF.COMPS:C12:1,2017-07-06T14:35:00Z,27.4980,-83.7220,28.58,1111122 
COMPS,ioos:station:USF.COMPS:C12:1,2017-07-06T15:05:00Z,27.4980,-83.7220,28.47,1111122 
COMPS,ioos:station:USF.COMPS:C12:1,2017-07-06T15:35:00Z,27.4980,-83.7220,28.75,1111122 